Time,TemperatureF,DewpointF,PressureIn,WindDirection,WindDirectionDegrees,WindSpeedMPH,WindSpeedGustMPH,Humidity,HourlyPrecipIn,Conditions,Clouds,dailyrainin,SoftwareType,DateUTC
2013-08-12 00:04:00,69.8,34.3,29.75,West,273,0.0,4.0,27,0.00,,---,0.00,VWS V14.01,2013-08-12 07:04:00,
2013-08-12 00:09:00,69.5,35.0,29.75,West,273,2.0,6.0,28,0.00,,---,0.00,VWS V14.01,2013-08-12 07:09:00,
2013-08-12 00:13:00,69.3,34.8,29.75,West,262,0.0,3.0,28,0.00,,---,0.00,VWS V14.01,2013-08-12 07:13:00,
2013-08-12 00:18:00,69.1,34.7,29.75,West,265,1.0,3.0,28,0.00,,---,0.00,VWS V14.01,2013-08-12 07:18:00,
2013-08-12 00:23:00,68.9,34.5,29.75,West,265,0.0,3.0,28,0.00,,---,0.00,VWS V14.01,2013-08-12 07:23:00,
2013-08-12 00:28:00,68.7,34.3,29.75,West,265,0.0,1.0,28,0.00,,---,0.00,VWS V14.01,2013-08-12 07:28:00,
2013-08-12 00:33:00,68.5,34.1,29.75,West,265,0.0,1.0,28,0.00,,---,0.00,VWS V14.01,2013-08-12 07:33:00,
2013-08-12 00:38:00,68.4,34.0,29.76,West,265,0.0,1.0,28,0.00,,---,0.00,VWS V14.01,2013-08-12 07:38:00,
2013-08-12 00:43:00,68.3,34.0,29.76,West,265,0.0,0.0,28,0.00,,---,0.00,VWS V14.01,2013-08-12 07:43:00,
2013-08-12 00:48:00,68.0,33.7,29.76,North,355,0.0,2.0,28,0.00,,---,0.00,VWS V14.01,2013-08-12 07:48:00,
2013-08-12 00:53:00,67.8,34.4,29.76,ENE,59,1.0,2.0,29,0.00,,---,0.00,VWS V14.01,2013-08-12 07:53:00,
2013-08-12 00:58:00,67.6,35.1,29.77,ENE,59,0.0,1.0,30,0.00,,---,0.00,VWS V14.01,2013-08-12 07:58:00,
2013-08-12 01:03:00,67.3,34.8,29.77,ENE,59,0.0,0.0,30,0.00,,---,0.00,VWS V14.01,2013-08-12 08:03:00,
2013-08-12 01:08:00,66.9,34.5,29.76,ENE,59,0.0,0.0,30,0.00,,---,0.00,VWS V14.01,2013-08-12 08:08:00,
2013-08-12 01:13:00,66.6,34.2,29.76,ENE,58,0.0,1.0,30,0.00,,---,0.00,VWS V14.01,2013-08-12 08:13:00,
2013-08-12 01:18:00,65.7,35.1,29.76,ENE,58,0.0,0.0,32,0.00,,---,0.00,VWS V14.01,2013-08-12 08:18:00,
2013-08-12 01:23:00,64.7,35.0,29.76,ENE,58,0.0,2.0,33,0.00,,---,0.00,VWS V14.01,2013-08-12 08:23:00,
2013-08-12 01:28:00,64.5,34.0,29.76,WSW,251,4.0,5.0,32,0.00,,---,0.00,VWS V14.01,2013-08-12 08:28:00,
2013-08-12 01:33:00,64.9,33.6,29.76,West,267,3.0,5.0,31,0.00,,---,0.00,VWS V14.01,2013-08-12 08:33:00,
2013-08-12 01:38:00,65.2,33.8,29.76,West,265,0.0,3.0,31,0.00,,---,0.00,VWS V14.01,2013-08-12 08:38:00,
2013-08-12 01:43:00,65.3,33.9,29.76,WNW,297,1.0,3.0,31,0.00,,---,0.00,VWS V14.01,2013-08-12 08:43:00,
2013-08-12 01:48:00,65.6,34.2,29.76,West,275,2.0,4.0,31,0.00,,---,0.00,VWS V14.01,2013-08-12 08:48:00,
2013-08-12 01:53:00,65.7,34.3,29.76,WNW,291,1.0,6.0,31,0.00,,---,0.00,VWS V14.01,2013-08-12 08:53:00,
2013-08-12 01:58:00,65.8,34.3,29.76,West,274,2.0,9.0,31,0.00,,---,0.00,VWS V14.01,2013-08-12 08:58:00,
2013-08-12 02:03:00,66.2,33.9,29.76,West,261,3.0,8.0,30,0.00,,---,0.00,VWS V14.01,2013-08-12 09:03:00,
2013-08-12 02:08:00,66.2,34.7,29.76,WSW,251,5.0,6.0,31,0.00,,---,0.00,VWS V14.01,2013-08-12 09:08:00,
2013-08-12 02:13:00,66.2,33.9,29.75,WNW,303,3.0,4.0,30,0.00,,---,0.00,VWS V14.01,2013-08-12 09:13:00,
2013-08-12 02:18:00,66.0,34.5,29.75,WNW,282,0.0,6.0,31,0.00,,---,0.00,VWS V14.01,2013-08-12 09:18:00,
2013-08-12 02:23:00,65.7,35.1,29.75,WNW,294,2.0,2.0,32,0.00,,---,0.00,VWS V14.01,2013-08-12 09:23:00,
2013-08-12 02:28:00,65.3,35.5,29.76,WNW,300,0.0,1.0,33,0.00,,---,0.00,VWS V14.01,2013-08-12 09:28:00,
2013-08-12 02:33:00,64.9,35.1,29.76,WNW,300,0.0,2.0,33,0.00,,---,0.00,VWS V14.01,2013-08-12 09:33:00,
2013-08-12 02:38:00,64.7,35.0,29.75,NW,317,2.0,2.0,33,0.00,,---,0.00,VWS V14.01,2013-08-12 09:38:00,
2013-08-12 02:43:00,64.6,34.1,29.75,NW,309,1.0,4.0,32,0.00,,---,0.00,VWS V14.01,2013-08-12 09:43:00,
2013-08-12 02:48:00,64.7,34.2,29.75,NW,312,1.0,4.0,32,0.00,,---,0.00,VWS V14.01,2013-08-12 09:48:00,
2013-08-12 02:53:00,64.9,34.4,29.75,WNW,291,1.0,4.0,32,0.00,,---,0.00,VWS V14.01,2013-08-12 09:53:00,
2013-08-12 02:58:00,65.1,33.7,29.75,WNW,292,1.0,1.0,31,0.00,,---,0.00,VWS V14.01,2013-08-12 09:58:00,
2013-08-12 03:03:00,65.1,33.7,29.76,WNW,292,0.0,2.0,31,0.00,,---,0.00,VWS V14.01,2013-08-12 10:03:00,
2013-08-12 03:08:00,65.1,33.7,29.75,WNW,292,0.0,1.0,31,0.00,,---,0.00,VWS V14.01,2013-08-12 10:08:00,
2013-08-12 03:13:00,65.0,33.7,29.76,WNW,292,0.0,0.0,31,0.00,,---,0.00,VWS V14.01,2013-08-12 10:13:00,
2013-08-12 03:18:00,64.5,34.0,29.76,WNW,292,0.0,1.0,32,0.00,,---,0.00,VWS V14.01,2013-08-12 10:18:00,
2013-08-12 03:23:00,64.2,33.8,29.76,WNW,292,0.0,1.0,32,0.00,,---,0.00,VWS V14.01,2013-08-12 10:23:00,
2013-08-12 03:28:00,64.0,34.3,29.76,WNW,292,0.0,1.0,33,0.00,,---,0.00,VWS V14.01,2013-08-12 10:28:00,
2013-08-12 03:33:00,63.5,33.9,29.76,NNW,339,0.0,3.0,33,0.00,,---,0.00,VWS V14.01,2013-08-12 10:33:00,
2013-08-12 03:38:00,63.2,33.6,29.76,NW,313,2.0,4.0,33,0.00,,---,0.00,VWS V14.01,2013-08-12 10:38:00,
2013-08-12 03:43:00,63.2,33.6,29.75,NW,311,0.0,5.0,33,0.00,,---,0.00,VWS V14.01,2013-08-12 10:43:00,
2013-08-12 03:48:00,63.3,33.7,29.76,NW,309,0.0,4.0,33,0.00,,---,0.00,VWS V14.01,2013-08-12 10:48:00,
2013-08-12 03:53:00,63.6,34.0,29.76,NW,310,3.0,5.0,33,0.00,,---,0.00,VWS V14.01,2013-08-12 10:53:00,
2013-08-12 03:58:00,63.8,33.4,29.76,NW,323,0.0,4.0,32,0.00,,---,0.00,VWS V14.01,2013-08-12 10:58:00,
2013-08-12 04:03:00,63.8,33.4,29.76,WNW,303,0.0,3.0,32,0.00,,---,0.00,VWS V14.01,2013-08-12 11:03:00,
2013-08-12 04:08:00,63.8,33.4,29.76,WNW,293,0.0,1.0,32,0.00,,---,0.00,VWS V14.01,2013-08-12 11:08:00,
2013-08-12 04:13:00,63.5,33.9,29.76,WNW,292,0.0,3.0,33,0.00,,---,0.00,VWS V14.01,2013-08-12 11:13:00,
2013-08-12 04:18:00,63.2,33.6,29.76,WNW,290,0.0,2.0,33,0.00,,---,0.00,VWS V14.01,2013-08-12 11:18:00,
2013-08-12 04:23:00,63.0,34.2,29.76,WNW,294,0.0,4.0,34,0.00,,---,0.00,VWS V14.01,2013-08-12 11:23:00,
2013-08-12 04:28:00,62.9,34.1,29.76,WNW,294,0.0,3.0,34,0.00,,---,0.00,VWS V14.01,2013-08-12 11:28:00,
2013-08-12 04:33:00,62.8,34.8,29.76,WNW,290,0.0,3.0,35,0.00,,---,0.00,VWS V14.01,2013-08-12 11:33:00,
2013-08-12 04:38:00,62.5,34.5,29.76,West,277,1.0,4.0,35,0.00,,---,0.00,VWS V14.01,2013-08-12 11:38:00,
2013-08-12 04:43:00,62.2,34.9,29.76,West,277,0.0,2.0,36,0.00,,---,0.00,VWS V14.01,2013-08-12 11:43:00,
2013-08-12 04:48:00,62.0,34.8,29.76,West,277,2.0,2.0,36,0.00,,---,0.00,VWS V14.01,2013-08-12 11:48:00,
2013-08-12 04:53:00,61.8,35.3,29.76,WNW,283,0.0,1.0,37,0.00,,---,0.00,VWS V14.01,2013-08-12 11:53:00,
2013-08-12 04:58:00,61.6,35.1,29.76,WNW,285,0.0,3.0,37,0.00,,---,0.00,VWS V14.01,2013-08-12 11:58:00,
2013-08-12 05:03:00,61.5,35.7,29.76,WNW,285,1.0,2.0,38,0.00,,---,0.00,VWS V14.01,2013-08-12 12:03:00,
2013-08-12 05:08:00,61.2,36.1,29.76,West,263,0.0,2.0,39,0.00,,---,0.00,VWS V14.01,2013-08-12 12:08:00,
2013-08-12 05:13:00,61.1,36.0,29.76,West,263,0.0,2.0,39,0.00,,---,0.00,VWS V14.01,2013-08-12 12:13:00,
2013-08-12 05:18:00,61.0,35.9,29.76,West,265,1.0,2.0,39,0.00,,---,0.00,VWS V14.01,2013-08-12 12:18:00,
2013-08-12 05:23:00,61.0,35.9,29.76,NW,315,1.0,3.0,39,0.00,,---,0.00,VWS V14.01,2013-08-12 12:23:00,
2013-08-12 05:28:00,61.0,35.2,29.76,WNW,292,0.0,1.0,38,0.00,,---,0.00,VWS V14.01,2013-08-12 12:28:00,
2013-08-12 05:33:00,61.1,35.3,29.76,WNW,290,0.0,1.0,38,0.00,,---,0.00,VWS V14.01,2013-08-12 12:33:00,
2013-08-12 05:38:00,60.8,35.7,29.77,WNW,290,0.0,1.0,39,0.00,,---,0.00,VWS V14.01,2013-08-12 12:38:00,
2013-08-12 05:43:00,60.6,35.5,29.76,WNW,290,0.0,1.0,39,0.00,,---,0.00,VWS V14.01,2013-08-12 12:43:00,
2013-08-12 05:48:00,60.4,35.3,29.77,WNW,290,1.0,2.0,39,0.00,,---,0.00,VWS V14.01,2013-08-12 12:48:00,
2013-08-12 05:53:00,60.0,36.2,29.77,WNW,289,0.0,1.0,41,0.00,,---,0.00,VWS V14.01,2013-08-12 12:53:00,
2013-08-12 05:58:00,59.9,36.2,29.77,WNW,289,0.0,2.0,41,0.00,,---,0.00,VWS V14.01,2013-08-12 12:58:00,
2013-08-12 06:03:00,59.9,36.2,29.77,WNW,289,0.0,1.0,41,0.00,,---,0.00,VWS V14.01,2013-08-12 13:03:00,
2013-08-12 06:08:00,59.9,36.2,29.77,WNW,289,0.0,2.0,41,0.00,,---,0.00,VWS V14.01,2013-08-12 13:08:00,
2013-08-12 06:13:00,59.8,36.1,29.77,WNW,289,0.0,1.0,41,0.00,,---,0.00,VWS V14.01,2013-08-12 13:13:00,
2013-08-12 06:18:00,59.6,36.5,29.77,WNW,289,1.0,1.0,42,0.00,,---,0.00,VWS V14.01,2013-08-12 13:18:00,
2013-08-12 06:23:00,59.4,36.3,29.77,West,279,0.0,3.0,42,0.00,,---,0.00,VWS V14.01,2013-08-12 13:23:00,
2013-08-12 06:28:00,59.3,36.2,29.77,West,278,0.0,3.0,42,0.00,,---,0.00,VWS V14.01,2013-08-12 13:28:00,
2013-08-12 06:33:00,59.3,36.2,29.77,West,278,0.0,1.0,42,0.00,,---,0.00,VWS V14.01,2013-08-12 13:33:00,
2013-08-12 06:38:00,59.3,36.2,29.77,West,278,0.0,1.0,42,0.00,,---,0.00,VWS V14.01,2013-08-12 13:38:00,
2013-08-12 06:43:00,59.4,36.3,29.77,West,278,0.0,1.0,42,0.00,,---,0.00,VWS V14.01,2013-08-12 13:43:00,
2013-08-12 06:48:00,59.4,36.3,29.77,West,278,1.0,2.0,42,0.00,,---,0.00,VWS V14.01,2013-08-12 13:48:00,
2013-08-12 06:53:00,59.6,36.5,29.77,West,278,0.0,3.0,42,0.00,,---,0.00,VWS V14.01,2013-08-12 13:53:00,
2013-08-12 06:58:00,59.8,36.7,29.78,West,273,1.0,3.0,42,0.00,,---,0.00,VWS V14.01,2013-08-12 13:58:00,
2013-08-12 07:03:00,60.1,37.0,29.78,West,273,1.0,2.0,42,0.00,,---,0.00,VWS V14.01,2013-08-12 14:03:00,
2013-08-12 07:08:00,60.5,36.7,29.78,West,273,0.0,1.0,41,0.00,,---,0.00,VWS V14.01,2013-08-12 14:08:00,
2013-08-12 07:13:00,60.9,37.1,29.78,West,273,0.0,1.0,41,0.00,,---,0.00,VWS V14.01,2013-08-12 14:13:00,
2013-08-12 07:18:00,61.5,37.0,29.78,West,273,2.0,2.0,40,0.00,,---,0.00,VWS V14.01,2013-08-12 14:18:00,
2013-08-12 07:23:00,62.1,36.9,29.78,West,275,0.0,3.0,39,0.00,,---,0.00,VWS V14.01,2013-08-12 14:23:00,
2013-08-12 07:28:00,62.8,36.8,29.78,West,275,1.0,2.0,38,0.00,,---,0.00,VWS V14.01,2013-08-12 14:28:00,
2013-08-12 07:33:00,63.6,37.5,29.79,West,267,1.0,3.0,38,0.00,,---,0.00,VWS V14.01,2013-08-12 14:33:00,
2013-08-12 07:38:00,64.4,37.6,29.79,West,267,0.0,3.0,37,0.00,,---,0.00,VWS V14.01,2013-08-12 14:38:00,
2013-08-12 07:43:00,65.5,38.6,29.79,West,267,2.0,3.0,37,0.00,,---,0.00,VWS V14.01,2013-08-12 14:43:00,
2013-08-12 07:48:00,66.3,37.8,29.79,West,266,2.0,5.0,35,0.00,,---,0.00,VWS V14.01,2013-08-12 14:48:00,
2013-08-12 07:53:00,67.1,38.6,29.79,West,259,0.0,4.0,35,0.00,,---,0.00,VWS V14.01,2013-08-12 14:53:00,
2013-08-12 07:58:00,67.8,38.4,29.79,WNW,290,0.0,3.0,34,0.00,,---,0.00,VWS V14.01,2013-08-12 14:58:00,
2013-08-12 08:03:00,68.7,39.2,29.79,West,259,0.0,2.0,34,0.00,,---,0.00,VWS V14.01,2013-08-12 15:03:00,
2013-08-12 08:08:00,69.5,38.4,29.79,West,275,0.0,5.0,32,0.00,,---,0.00,VWS V14.01,2013-08-12 15:08:00,
2013-08-12 08:13:00,70.3,37.4,29.79,WNW,302,3.0,6.0,30,0.00,,---,0.00,VWS V14.01,2013-08-12 15:13:00,
2013-08-12 08:18:00,70.8,37.9,29.80,West,267,0.0,6.0,30,0.00,,---,0.00,VWS V14.01,2013-08-12 15:18:00,
2013-08-12 08:23:00,71.5,37.6,29.79,NNW,340,2.0,5.0,29,0.00,,---,0.00,VWS V14.01,2013-08-12 15:23:00,
2013-08-12 08:28:00,72.0,38.0,29.79,WNW,293,0.0,4.0,29,0.00,,---,0.00,VWS V14.01,2013-08-12 15:28:00,
2013-08-12 08:33:00,72.7,36.8,29.79,West,259,1.0,5.0,27,0.00,,---,0.00,VWS V14.01,2013-08-12 15:33:00,
2013-08-12 08:38:00,73.3,36.4,29.79,NW,304,6.0,8.0,26,0.00,,---,0.00,VWS V14.01,2013-08-12 15:38:00,
2013-08-12 08:43:00,73.6,36.6,29.79,WNW,298,2.0,5.0,26,0.00,,---,0.00,VWS V14.01,2013-08-12 15:43:00,
2013-08-12 08:48:00,74.1,36.1,29.79,West,269,0.0,7.0,25,0.00,,---,0.00,VWS V14.01,2013-08-12 15:48:00,
2013-08-12 08:53:00,74.4,36.3,29.79,WNW,286,2.0,4.0,25,0.00,,---,0.00,VWS V14.01,2013-08-12 15:53:00,
2013-08-12 08:58:00,74.8,35.6,29.79,NW,305,2.0,5.0,24,0.00,,---,0.00,VWS V14.01,2013-08-12 15:58:00,
2013-08-12 09:03:00,75.2,34.9,29.79,WNW,300,1.0,7.0,23,0.00,,---,0.00,VWS V14.01,2013-08-12 16:03:00,
2013-08-12 09:08:00,75.9,34.4,29.79,WNW,285,4.0,7.0,22,0.00,,---,0.00,VWS V14.01,2013-08-12 16:08:00,
2013-08-12 09:13:00,76.3,34.7,29.79,WSW,245,3.0,6.0,22,0.00,,---,0.00,VWS V14.01,2013-08-12 16:13:00,
2013-08-12 09:18:00,76.7,35.0,29.78,NW,320,4.0,4.0,22,0.00,,---,0.00,VWS V14.01,2013-08-12 16:18:00,
2013-08-12 09:23:00,77.2,34.3,29.78,WSW,241,0.0,6.0,21,0.00,,---,0.00,VWS V14.01,2013-08-12 16:23:00,
2013-08-12 09:28:00,77.6,34.6,29.78,NW,315,4.0,6.0,21,0.00,,---,0.00,VWS V14.01,2013-08-12 16:28:00,
2013-08-12 09:33:00,77.3,34.4,29.78,NW,319,4.0,5.0,21,0.00,,---,0.00,VWS V14.01,2013-08-12 16:33:00,
2013-08-12 09:38:00,77.2,33.1,29.79,NNW,327,3.0,6.0,20,0.00,,---,0.00,VWS V14.01,2013-08-12 16:38:00,
2013-08-12 09:43:00,77.8,33.6,29.79,WNW,293,0.0,7.0,20,0.00,,---,0.00,VWS V14.01,2013-08-12 16:43:00,
2013-08-12 09:48:00,78.9,33.2,29.79,West,269,0.0,5.0,19,0.00,,---,0.00,VWS V14.01,2013-08-12 16:48:00,
2013-08-12 09:53:00,79.8,32.6,29.79,WNW,298,3.0,5.0,18,0.00,,---,0.00,VWS V14.01,2013-08-12 16:53:00,
2013-08-12 09:58:00,79.7,32.5,29.79,WNW,292,5.0,6.0,18,0.00,,---,0.00,VWS V14.01,2013-08-12 16:58:00,
2013-08-12 10:03:00,79.6,32.4,29.78,North,355,5.0,5.0,18,0.00,,---,0.00,VWS V14.01,2013-08-12 17:03:00,
2013-08-12 10:08:00,79.8,32.6,29.79,WNW,295,1.0,5.0,18,0.00,,---,0.00,VWS V14.01,2013-08-12 17:08:00,
2013-08-12 10:13:00,80.7,31.9,29.78,WNW,283,3.0,3.0,17,0.00,,---,0.00,VWS V14.01,2013-08-12 17:13:00,
2013-08-12 10:18:00,80.8,32.0,29.78,NW,320,4.0,5.0,17,0.00,,---,0.00,VWS V14.01,2013-08-12 17:18:00,
2013-08-12 10:23:00,80.8,30.5,29.78,NW,320,1.0,6.0,16,0.00,,---,0.00,VWS V14.01,2013-08-12 17:23:00,
2013-08-12 10:28:00,80.9,30.5,29.78,SW,219,1.0,4.0,16,0.00,,---,0.00,VWS V14.01,2013-08-12 17:28:00,
2013-08-12 10:33:00,81.9,31.4,29.78,West,269,6.0,7.0,16,0.00,,---,0.00,VWS V14.01,2013-08-12 17:33:00,
2013-08-12 10:38:00,82.5,30.2,29.78,WSW,257,0.0,5.0,15,0.00,,---,0.00,VWS V14.01,2013-08-12 17:38:00,
2013-08-12 10:43:00,83.1,30.7,29.78,West,265,5.0,5.0,15,0.00,,---,0.00,VWS V14.01,2013-08-12 17:43:00,
2013-08-12 10:48:00,83.2,29.1,29.78,WSW,248,0.0,3.0,14,0.00,,---,0.00,VWS V14.01,2013-08-12 17:48:00,
2013-08-12 10:53:00,83.7,29.5,29.78,WSW,248,0.0,0.0,14,0.00,,---,0.00,VWS V14.01,2013-08-12 17:53:00,
2013-08-12 10:58:00,84.0,29.7,29.78,West,281,2.0,6.0,14,0.00,,---,0.00,VWS V14.01,2013-08-12 17:58:00,
2013-08-12 11:03:00,84.8,28.5,29.78,West,262,0.0,3.0,13,0.00,,---,0.00,VWS V14.01,2013-08-12 18:03:00,
2013-08-12 11:08:00,85.1,26.8,29.78,NW,320,0.0,5.0,12,0.00,,---,0.00,VWS V14.01,2013-08-12 18:08:00,
2013-08-12 11:13:00,84.1,28.0,29.78,NE,46,2.0,4.0,13,0.00,,---,0.00,VWS V14.01,2013-08-12 18:13:00,
2013-08-12 11:18:00,84.6,28.4,29.78,NNW,331,2.0,2.0,13,0.00,,---,0.00,VWS V14.01,2013-08-12 18:18:00,
2013-08-12 11:23:00,84.9,28.6,29.78,NW,319,2.0,4.0,13,0.00,,---,0.00,VWS V14.01,2013-08-12 18:23:00,
2013-08-12 11:28:00,84.5,28.3,29.78,NNE,19,1.0,5.0,13,0.00,,---,0.00,VWS V14.01,2013-08-12 18:28:00,
2013-08-12 11:33:00,84.3,28.2,29.78,North,355,3.0,5.0,13,0.00,,---,0.00,VWS V14.01,2013-08-12 18:33:00,
2013-08-12 11:38:00,84.8,26.6,29.78,North,5,2.0,5.0,12,0.00,,---,0.00,VWS V14.01,2013-08-12 18:38:00,
2013-08-12 11:43:00,85.9,27.5,29.77,NNW,342,0.0,3.0,12,0.00,,---,0.00,VWS V14.01,2013-08-12 18:43:00,
2013-08-12 11:49:00,86.5,25.8,29.77,South,171,1.0,5.0,11,0.00,,---,0.00,VWS V14.01,2013-08-12 18:49:00,
2013-08-12 11:54:00,86.1,25.5,29.77,SSW,211,4.0,7.0,11,0.00,,---,0.00,VWS V14.01,2013-08-12 18:54:00,
2013-08-12 11:59:00,86.2,25.6,29.77,West,275,3.0,7.0,11,0.00,,---,0.00,VWS V14.01,2013-08-12 18:59:00,
2013-08-12 12:03:00,86.6,28.0,29.77,SE,142,5.0,7.0,12,0.00,,---,0.00,VWS V14.01,2013-08-12 19:03:00,
2013-08-12 12:09:00,86.3,25.7,29.77,South,180,1.0,7.0,11,0.00,,---,0.00,VWS V14.01,2013-08-12 19:09:00,
2013-08-12 12:14:00,86.2,25.6,29.77,South,188,2.0,7.0,11,0.00,,---,0.00,VWS V14.01,2013-08-12 19:14:00,
2013-08-12 12:19:00,86.2,27.7,29.77,SSE,164,1.0,4.0,12,0.00,,---,0.00,VWS V14.01,2013-08-12 19:19:00,
2013-08-12 12:24:00,87.1,26.3,29.76,SE,140,6.0,7.0,11,0.00,,---,0.00,VWS V14.01,2013-08-12 19:24:00,
2013-08-12 12:29:00,87.4,28.6,29.76,SE,139,3.0,7.0,12,0.00,,---,0.00,VWS V14.01,2013-08-12 19:29:00,
2013-08-12 12:34:00,87.5,26.6,29.76,South,175,4.0,7.0,11,0.00,,---,0.00,VWS V14.01,2013-08-12 19:34:00,
2013-08-12 12:39:00,87.3,26.4,29.76,SSW,192,5.0,8.0,11,0.00,,---,0.00,VWS V14.01,2013-08-12 19:39:00,
2013-08-12 12:43:00,86.6,25.9,29.76,SSW,192,2.0,6.0,11,0.00,,---,0.00,VWS V14.01,2013-08-12 19:43:00,
2013-08-12 12:48:00,87.7,24.5,29.76,South,190,0.0,1.0,10,0.00,,---,0.00,VWS V14.01,2013-08-12 19:48:00,
2013-08-12 12:53:00,88.2,24.8,29.76,South,169,3.0,7.0,10,0.00,,---,0.00,VWS V14.01,2013-08-12 19:53:00,
2013-08-12 12:58:00,88.6,27.4,29.76,SSE,165,3.0,6.0,11,0.00,,---,0.00,VWS V14.01,2013-08-12 19:58:00,
2013-08-12 13:03:00,88.2,24.8,29.75,South,183,0.0,10.0,10,0.00,,---,0.00,VWS V14.01,2013-08-12 20:03:00,
2013-08-12 13:08:00,88.4,25.0,29.75,SW,215,0.0,6.0,10,0.00,,---,0.00,VWS V14.01,2013-08-12 20:08:00,
2013-08-12 13:13:00,88.6,25.1,29.75,SW,234,3.0,6.0,10,0.00,,---,0.00,VWS V14.01,2013-08-12 20:13:00,
2013-08-12 13:18:00,89.2,25.6,29.75,North,5,4.0,6.0,10,0.00,,---,0.00,VWS V14.01,2013-08-12 20:18:00,
2013-08-12 13:23:00,88.8,27.6,29.75,NE,39,0.0,4.0,11,0.00,,---,0.00,VWS V14.01,2013-08-12 20:23:00,
2013-08-12 13:28:00,89.8,26.0,29.75,East,101,0.0,2.0,10,0.00,,---,0.00,VWS V14.01,2013-08-12 20:28:00,
2013-08-12 13:33:00,89.8,26.0,29.75,SE,138,3.0,7.0,10,0.00,,---,0.00,VWS V14.01,2013-08-12 20:33:00,
2013-08-12 13:38:00,89.8,28.4,29.74,East,88,1.0,6.0,11,0.00,,---,0.00,VWS V14.01,2013-08-12 20:38:00,
2013-08-12 13:43:00,89.6,25.9,29.74,ESE,121,0.0,7.0,10,0.00,,---,0.00,VWS V14.01,2013-08-12 20:43:00,
2013-08-12 13:48:00,89.7,26.0,29.74,ESE,109,3.0,6.0,10,0.00,,---,0.00,VWS V14.01,2013-08-12 20:48:00,
2013-08-12 13:53:00,89.9,28.4,29.74,ENE,73,2.0,5.0,11,0.00,,---,0.00,VWS V14.01,2013-08-12 20:53:00,
2013-08-12 13:58:00,90.1,26.3,29.74,ESE,121,7.0,7.0,10,0.00,,---,0.00,VWS V14.01,2013-08-12 20:58:00,
2013-08-12 14:03:00,90.1,26.3,29.73,North,360,0.0,5.0,10,0.00,,---,0.00,VWS V14.01,2013-08-12 21:03:00,
2013-08-12 14:08:00,90.0,26.2,29.73,SSW,194,5.0,8.0,10,0.00,,---,0.00,VWS V14.01,2013-08-12 21:08:00,
2013-08-12 14:13:00,90.1,23.7,29.73,NW,316,4.0,7.0,9,0.00,,---,0.00,VWS V14.01,2013-08-12 21:13:00,
2013-08-12 14:18:00,90.6,24.1,29.73,WNW,293,1.0,6.0,9,0.00,,---,0.00,VWS V14.01,2013-08-12 21:18:00,
2013-08-12 14:23:00,91.1,27.0,29.73,SSW,202,0.0,6.0,10,0.00,,---,0.00,VWS V14.01,2013-08-12 21:23:00,
2013-08-12 14:28:00,91.2,24.6,29.72,South,181,4.0,9.0,9,0.00,,---,0.00,VWS V14.01,2013-08-12 21:28:00,
2013-08-12 14:33:00,90.7,24.2,29.72,South,174,6.0,6.0,9,0.00,,---,0.00,VWS V14.01,2013-08-12 21:33:00,
2013-08-12 14:38:00,90.8,21.5,29.72,SSE,153,2.0,6.0,8,0.00,,---,0.00,VWS V14.01,2013-08-12 21:38:00,
2013-08-12 14:43:00,90.8,29.1,29.72,SSE,153,5.0,8.0,11,0.00,,---,0.00,VWS V14.01,2013-08-12 21:43:00,
2013-08-12 14:48:00,90.7,26.7,29.72,SSE,167,1.0,8.0,10,0.00,,---,0.00,VWS V14.01,2013-08-12 21:48:00,
2013-08-12 14:53:00,91.0,24.4,29.71,ENE,69,3.0,7.0,9,0.00,,---,0.00,VWS V14.01,2013-08-12 21:53:00,
2013-08-12 14:58:00,91.3,31.6,29.71,South,186,4.0,6.0,12,0.00,,---,0.00,VWS V14.01,2013-08-12 21:58:00,
2013-08-12 15:03:00,91.0,24.4,29.71,South,182,6.0,9.0,9,0.00,,---,0.00,VWS V14.01,2013-08-12 22:03:00,
2013-08-12 15:08:00,91.8,25.0,29.71,SE,138,3.0,5.0,9,0.00,,---,0.00,VWS V14.01,2013-08-12 22:08:00,
2013-08-12 15:13:00,92.1,22.4,29.71,WSW,244,6.0,9.0,8,0.00,,---,0.00,VWS V14.01,2013-08-12 22:13:00,
2013-08-12 15:18:00,92.2,22.5,29.71,SSW,213,0.0,6.0,8,0.00,,---,0.00,VWS V14.01,2013-08-12 22:18:00,
2013-08-12 15:23:00,92.3,22.6,29.71,SE,130,3.0,5.0,8,0.00,,---,0.00,VWS V14.01,2013-08-12 22:23:00,
2013-08-12 15:28:00,92.4,22.6,29.70,ESE,103,3.0,10.0,8,0.00,,---,0.00,VWS V14.01,2013-08-12 22:28:00,
2013-08-12 15:33:00,92.3,22.6,29.70,East,87,0.0,4.0,8,0.00,,---,0.00,VWS V14.01,2013-08-12 22:33:00,
2013-08-12 15:38:00,92.7,28.2,29.70,SE,140,0.0,5.0,10,0.00,,---,0.00,VWS V14.01,2013-08-12 22:38:00,
2013-08-12 15:43:00,92.3,25.4,29.70,SE,142,3.0,8.0,9,0.00,,---,0.00,VWS V14.01,2013-08-12 22:43:00,
2013-08-12 15:48:00,91.6,24.9,29.70,SSE,150,6.0,6.0,9,0.00,,---,0.00,VWS V14.01,2013-08-12 22:48:00,
2013-08-12 15:53:00,91.9,25.1,29.70,South,190,0.0,4.0,9,0.00,,---,0.00,VWS V14.01,2013-08-12 22:53:00,
2013-08-12 15:58:00,91.9,22.3,29.70,SE,127,6.0,8.0,8,0.00,,---,0.00,VWS V14.01,2013-08-12 22:58:00,
2013-08-12 16:03:00,91.8,22.2,29.70,South,177,5.0,5.0,8,0.00,,---,0.00,VWS V14.01,2013-08-12 23:03:00,
2013-08-12 16:08:00,91.9,25.1,29.69,South,181,5.0,7.0,9,0.00,,---,0.00,VWS V14.01,2013-08-12 23:08:00,
2013-08-12 16:13:00,91.1,24.5,29.70,SE,144,4.0,6.0,9,0.00,,---,0.00,VWS V14.01,2013-08-12 23:13:00,
2013-08-12 16:18:00,91.1,24.5,29.69,SSE,155,7.0,10.0,9,0.00,,---,0.00,VWS V14.01,2013-08-12 23:18:00,
2013-08-12 16:23:00,91.1,21.7,29.69,SSE,150,5.0,13.0,8,0.00,,---,0.00,VWS V14.01,2013-08-12 23:23:00,
2013-08-12 16:28:00,91.0,21.6,29.69,SE,134,5.0,9.0,8,0.00,,---,0.00,VWS V14.01,2013-08-12 23:28:00,
2013-08-12 16:33:00,90.9,21.5,29.68,SE,129,1.0,8.0,8,0.00,,---,0.00,VWS V14.01,2013-08-12 23:33:00,
2013-08-12 16:38:00,91.0,21.6,29.68,ESE,117,7.0,9.0,8,0.00,,---,0.00,VWS V14.01,2013-08-12 23:38:00,
2013-08-12 16:43:00,91.3,27.2,29.68,ENE,78,3.0,8.0,10,0.00,,---,0.00,VWS V14.01,2013-08-12 23:43:00,
2013-08-12 16:48:00,91.5,24.8,29.68,ESE,111,3.0,8.0,9,0.00,,---,0.00,VWS V14.01,2013-08-12 23:48:00,
2013-08-12 16:53:00,91.6,24.9,29.68,SE,133,5.0,5.0,9,0.00,,---,0.00,VWS V14.01,2013-08-12 23:53:00,
2013-08-12 16:58:00,91.6,22.0,29.68,ENE,57,3.0,5.0,8,0.00,,---,0.00,VWS V14.01,2013-08-12 23:58:00,
2013-08-12 17:03:00,91.5,22.0,29.68,NNW,332,0.0,4.0,8,0.00,,---,0.00,VWS V14.01,2013-08-13 00:03:00,
2013-08-12 17:08:00,90.3,21.1,29.68,NW,319,0.0,4.0,8,0.00,,---,0.00,VWS V14.01,2013-08-13 00:08:00,
2013-08-12 17:13:00,89.3,20.4,29.68,NNW,348,2.0,3.0,8,0.00,,---,0.00,VWS V14.01,2013-08-13 00:13:00,
2013-08-12 17:18:00,89.5,23.3,29.68,WNW,293,1.0,5.0,9,0.00,,---,0.00,VWS V14.01,2013-08-13 00:18:00,
2013-08-12 17:23:00,90.0,23.7,29.68,NNE,23,0.0,5.0,9,0.00,,---,0.00,VWS V14.01,2013-08-13 00:23:00,
2013-08-12 17:28:00,90.8,24.3,29.68,SSE,166,3.0,6.0,9,0.00,,---,0.00,VWS V14.01,2013-08-13 00:28:00,
2013-08-12 17:33:00,90.8,24.3,29.68,South,191,5.0,6.0,9,0.00,,---,0.00,VWS V14.01,2013-08-13 00:33:00,
2013-08-12 17:38:00,90.3,21.1,29.68,SSE,165,3.0,7.0,8,0.00,,---,0.00,VWS V14.01,2013-08-13 00:38:00,
2013-08-12 17:43:00,89.8,20.7,29.68,SSE,156,0.0,11.0,8,0.00,,---,0.00,VWS V14.01,2013-08-13 00:43:00,
2013-08-12 17:48:00,90.1,26.3,29.68,South,184,2.0,6.0,10,0.00,,---,0.00,VWS V14.01,2013-08-13 00:48:00,
2013-08-12 17:53:00,90.0,23.7,29.67,South,177,2.0,5.0,9,0.00,,---,0.00,VWS V14.01,2013-08-13 00:53:00,
2013-08-12 17:58:00,90.5,21.2,29.67,ESE,103,1.0,4.0,8,0.00,,---,0.00,VWS V14.01,2013-08-13 00:58:00,
2013-08-12 18:03:00,90.1,21.0,29.67,East,100,0.0,1.0,8,0.00,,---,0.00,VWS V14.01,2013-08-13 01:03:00,
2013-08-12 18:08:00,90.1,21.0,29.67,East,84,0.0,2.0,8,0.00,,---,0.00,VWS V14.01,2013-08-13 01:08:00,
2013-08-12 18:13:00,90.3,23.9,29.67,East,84,1.0,1.0,9,0.00,,---,0.00,VWS V14.01,2013-08-13 01:13:00,
2013-08-12 18:18:00,90.3,23.9,29.67,NW,317,5.0,8.0,9,0.00,,---,0.00,VWS V14.01,2013-08-13 01:18:00,
2013-08-12 18:23:00,89.2,25.6,29.67,North,355,6.0,7.0,10,0.00,,---,0.00,VWS V14.01,2013-08-13 01:23:00,
2013-08-12 18:28:00,88.0,22.2,29.67,North,360,3.0,7.0,9,0.00,,---,0.00,VWS V14.01,2013-08-13 01:28:00,
2013-08-12 18:33:00,87.7,21.9,29.67,North,350,2.0,2.0,9,0.00,,---,0.00,VWS V14.01,2013-08-13 01:33:00,
2013-08-12 18:38:00,87.3,21.6,29.68,North,11,1.0,4.0,9,0.00,,---,0.00,VWS V14.01,2013-08-13 01:38:00,
2013-08-12 18:43:00,87.1,21.5,29.68,NW,325,0.0,4.0,9,0.00,,---,0.00,VWS V14.01,2013-08-13 01:43:00,
2013-08-12 18:48:00,87.1,24.0,29.67,WNW,292,0.0,3.0,10,0.00,,---,0.00,VWS V14.01,2013-08-13 01:48:00,
2013-08-12 18:53:00,87.3,24.1,29.67,NW,315,0.0,4.0,10,0.00,,---,0.00,VWS V14.01,2013-08-13 01:53:00,
2013-08-12 18:58:00,87.4,21.7,29.67,NNW,330,3.0,6.0,9,0.00,,---,0.00,VWS V14.01,2013-08-13 01:58:00,
2013-08-12 19:03:00,87.2,21.6,29.68,WNW,284,4.0,7.0,9,0.00,,---,0.00,VWS V14.01,2013-08-13 02:03:00,
2013-08-12 19:08:00,87.1,21.5,29.68,WSW,253,5.0,6.0,9,0.00,,---,0.00,VWS V14.01,2013-08-13 02:08:00,
2013-08-12 19:13:00,86.7,21.2,29.68,NW,309,4.0,10.0,9,0.00,,---,0.00,VWS V14.01,2013-08-13 02:13:00,
2013-08-12 19:18:00,86.2,20.8,29.68,WNW,298,6.0,14.0,9,0.00,,---,0.00,VWS V14.01,2013-08-13 02:18:00,
2013-08-12 19:23:00,86.0,23.2,29.68,NW,326,4.0,8.0,10,0.00,,---,0.00,VWS V14.01,2013-08-13 02:23:00,
2013-08-12 19:28:00,85.6,22.9,29.68,WNW,293,7.0,10.0,10,0.00,,---,0.00,VWS V14.01,2013-08-13 02:28:00,
2013-08-12 19:33:00,85.3,22.6,29.69,WNW,296,5.0,11.0,10,0.00,,---,0.00,VWS V14.01,2013-08-13 02:33:00,
2013-08-12 19:38:00,85.0,22.4,29.69,NW,316,11.0,12.0,10,0.00,,---,0.00,VWS V14.01,2013-08-13 02:38:00,
2013-08-12 19:43:00,84.7,24.4,29.69,NW,310,6.0,12.0,11,0.00,,---,0.00,VWS V14.01,2013-08-13 02:43:00,
2013-08-12 19:48:00,84.5,26.4,29.69,WNW,295,5.0,10.0,12,0.00,,---,0.00,VWS V14.01,2013-08-13 02:48:00,
2013-08-12 19:53:00,84.0,26.0,29.70,NW,309,7.0,12.0,12,0.00,,---,0.00,VWS V14.01,2013-08-13 02:53:00,
2013-08-12 19:58:00,83.8,25.8,29.70,WNW,298,4.0,15.0,12,0.00,,---,0.00,VWS V14.01,2013-08-13 02:58:00,
2013-08-12 20:03:00,83.7,25.8,29.70,NW,313,3.0,15.0,12,0.00,,---,0.00,VWS V14.01,2013-08-13 03:03:00,
2013-08-12 20:08:00,83.3,27.4,29.71,WNW,302,9.0,11.0,13,0.00,,---,0.00,VWS V14.01,2013-08-13 03:08:00,
2013-08-12 20:13:00,83.0,27.1,29.71,NW,312,6.0,12.0,13,0.00,,---,0.00,VWS V14.01,2013-08-13 03:13:00,
2013-08-12 20:18:00,82.7,26.9,29.71,NW,313,2.0,12.0,13,0.00,,---,0.00,VWS V14.01,2013-08-13 03:18:00,
2013-08-12 20:23:00,82.4,26.7,29.71,NW,304,3.0,10.0,13,0.00,,---,0.00,VWS V14.01,2013-08-13 03:23:00,
2013-08-12 20:28:00,82.0,28.1,29.72,NW,304,5.0,10.0,14,0.00,,---,0.00,VWS V14.01,2013-08-13 03:28:00,
2013-08-12 20:33:00,81.7,27.9,29.72,NW,326,4.0,10.0,14,0.00,,---,0.00,VWS V14.01,2013-08-13 03:33:00,
2013-08-12 20:38:00,81.5,27.8,29.72,West,275,3.0,9.0,14,0.00,,---,0.00,VWS V14.01,2013-08-13 03:38:00,
2013-08-12 20:43:00,80.9,29.0,29.72,NW,310,10.0,11.0,15,0.00,,---,0.00,VWS V14.01,2013-08-13 03:43:00,
2013-08-12 20:48:00,80.4,28.6,29.73,NNW,329,8.0,14.0,15,0.00,,---,0.00,VWS V14.01,2013-08-13 03:48:00,
2013-08-12 20:53:00,80.2,28.4,29.73,NW,310,6.0,14.0,15,0.00,,---,0.00,VWS V14.01,2013-08-13 03:53:00,
2013-08-12 20:58:00,79.9,28.2,29.73,WNW,298,6.0,10.0,15,0.00,,---,0.00,VWS V14.01,2013-08-13 03:58:00,
2013-08-12 21:01:00,79.8,29.7,29.73,WNW,284,7.0,11.0,16,0.00,,---,0.00,VWS V14.01,2013-08-13 04:01:00,
2013-08-12 21:06:00,79.5,29.4,29.73,WNW,298,13.0,13.0,16,0.00,,---,0.00,VWS V14.01,2013-08-13 04:06:00,
2013-08-12 21:11:00,79.1,30.6,29.74,WNW,299,4.0,10.0,17,0.00,,---,0.00,VWS V14.01,2013-08-13 04:11:00,
2013-08-12 21:16:00,78.7,30.3,29.74,WNW,293,2.0,6.0,17,0.00,,---,0.00,VWS V14.01,2013-08-13 04:16:00,
2013-08-12 21:21:00,78.4,31.4,29.74,WNW,288,5.0,7.0,18,0.00,,---,0.00,VWS V14.01,2013-08-13 04:21:00,
2013-08-12 21:26:00,78.3,31.4,29.74,NW,317,5.0,10.0,18,0.00,,---,0.00,VWS V14.01,2013-08-13 04:26:00,
2013-08-12 21:31:00,78.6,31.6,29.74,West,277,10.0,12.0,18,0.00,,---,0.00,VWS V14.01,2013-08-13 04:31:00,
2013-08-12 21:36:00,78.6,31.6,29.74,NNW,327,7.0,10.0,18,0.00,,---,0.00,VWS V14.01,2013-08-13 04:36:00,
2013-08-12 21:41:00,78.3,31.4,29.75,NW,309,5.0,7.0,18,0.00,,---,0.00,VWS V14.01,2013-08-13 04:41:00,
2013-08-12 21:46:00,77.9,32.4,29.75,NNW,339,4.0,9.0,19,0.00,,---,0.00,VWS V14.01,2013-08-13 04:46:00,
2013-08-12 21:51:00,77.5,32.0,29.75,WNW,300,10.0,11.0,19,0.00,,---,0.00,VWS V14.01,2013-08-13 04:51:00,
2013-08-12 21:56:00,77.3,31.9,29.75,NW,307,5.0,10.0,19,0.00,,---,0.00,VWS V14.01,2013-08-13 04:56:00,
2013-08-12 22:01:00,77.1,31.7,29.75,NW,313,11.0,11.0,19,0.00,,---,0.00,VWS V14.01,2013-08-13 05:01:00,
2013-08-12 22:06:00,76.8,31.5,29.75,NW,306,6.0,8.0,19,0.00,,---,0.00,VWS V14.01,2013-08-13 05:06:00,
2013-08-12 22:11:00,76.6,31.3,29.75,NW,317,4.0,6.0,19,0.00,,---,0.00,VWS V14.01,2013-08-13 05:11:00,
2013-08-12 22:16:00,76.4,31.1,29.76,WNW,297,2.0,3.0,19,0.00,,---,0.00,VWS V14.01,2013-08-13 05:16:00,
2013-08-12 22:21:00,75.9,32.0,29.76,NNW,347,3.0,4.0,20,0.00,,---,0.00,VWS V14.01,2013-08-13 05:21:00,
2013-08-12 22:26:00,75.1,31.3,29.76,NW,325,2.0,7.0,20,0.00,,---,0.00,VWS V14.01,2013-08-13 05:26:00,
2013-08-12 22:31:00,74.5,32.0,29.76,NNW,331,4.0,6.0,21,0.00,,---,0.00,VWS V14.01,2013-08-13 05:31:00,
2013-08-12 22:36:00,74.0,31.6,29.76,NNW,340,2.0,3.0,21,0.00,,---,0.00,VWS V14.01,2013-08-13 05:36:00,
2013-08-12 22:41:00,73.5,32.4,29.76,NNW,329,3.0,3.0,22,0.00,,---,0.00,VWS V14.01,2013-08-13 05:41:00,
2013-08-12 22:46:00,73.1,32.0,29.76,NNW,344,2.0,5.0,22,0.00,,---,0.00,VWS V14.01,2013-08-13 05:46:00,
2013-08-12 22:51:00,72.6,32.7,29.76,NW,325,3.0,3.0,23,0.00,,---,0.00,VWS V14.01,2013-08-13 05:51:00,
2013-08-12 22:56:00,72.3,32.5,29.76,NW,308,2.0,3.0,23,0.00,,---,0.00,VWS V14.01,2013-08-13 05:56:00,
2013-08-12 23:01:00,72.2,31.3,29.77,NW,314,4.0,4.0,22,0.00,,---,0.00,VWS V14.01,2013-08-13 06:01:00,
2013-08-12 23:06:00,72.3,31.4,29.77,NW,313,5.0,5.0,22,0.00,,---,0.00,VWS V14.01,2013-08-13 06:06:00,
2013-08-12 23:11:00,72.3,31.4,29.77,West,280,0.0,2.0,22,0.00,,---,0.00,VWS V14.01,2013-08-13 06:11:00,
2013-08-12 23:16:00,72.1,32.3,29.77,West,261,0.0,1.0,23,0.00,,---,0.00,VWS V14.01,2013-08-13 06:16:00,
2013-08-12 23:21:00,71.8,33.1,29.77,NW,307,1.0,1.0,24,0.00,,---,0.00,VWS V14.01,2013-08-13 06:21:00,
2013-08-12 23:26:00,71.4,32.8,29.77,WNW,300,0.0,0.0,24,0.00,,---,0.00,VWS V14.01,2013-08-13 06:26:00,
2013-08-12 23:31:00,71.3,32.7,29.77,NW,310,0.0,0.0,24,0.00,,---,0.00,VWS V14.01,2013-08-13 06:31:00,
2013-08-12 23:36:00,71.1,32.5,29.77,NW,310,0.0,0.0,24,0.00,,---,0.00,VWS V14.01,2013-08-13 06:36:00,
2013-08-12 23:41:00,70.6,32.1,29.78,NW,309,0.0,1.0,24,0.00,,---,0.00,VWS V14.01,2013-08-13 06:41:00,
2013-08-12 23:46:00,70.3,32.8,29.78,NW,306,3.0,3.0,25,0.00,,---,0.00,VWS V14.01,2013-08-13 06:46:00,
2013-08-12 23:51:00,70.1,32.7,29.78,NW,306,0.0,0.0,25,0.00,,---,0.00,VWS V14.01,2013-08-13 06:51:00,
2013-08-12 23:56:00,69.9,32.5,29.78,NW,306,0.0,2.0,25,0.00,,---,0.00,VWS V14.01,2013-08-13 06:56:00,